Tracking 27428 objects as of 31-May-2023
HD Live streaming from Space Station
objects crossing your sky now

USA 160

Track USA 160 now!
10-day predictions
USA 160 is classified as:


NORAD ID: 26905
Int'l Code: 2001-040A
Perigee: 696.9 km
Apogee: 1,529.5 km
Inclination: 63.4 °
Period: 107.4 minutes
Semi major axis: 7484 km
RCS: Unknown
Launch date: September 8, 2001
Source: United States (US)
Launch site: AIR FORCE WESTERN TEST RANGE (AFWTR)
Your satellite tracking list
Your tracking list is empty




NASA's NSSDC Master Catalog

Two Line Element Set (TLE):
1 26905U 01040A   23046.17210045 0.00000100  00000-0  72183-4 0    01
2 26905  63.3870 140.0201 0556272   4.9948 355.0051 13.40870955    01
Source of the keplerian elements: McCants